START_TIME,STEP,MOV.,AL01,t_acc.,AL02,t_acc.,E37,t_acc.,H21,t_acc.
1979-07-03 03:00:35.150 ,1,0,0.,24.0,0.,24.0,0.,24.0,0.,24.0
1979-07-03 03:00:59.150 ,2,1,0.,24.0,0.,24.0,1.,24.0,0.,24.0
1979-07-03 03:01:23.150 ,2,0,0.,24.0,0.,24.0,0.,24.0,0.,24.0
1979-07-03 03:01:47.150 ,3,1,1.,24.0,2.,24.0,0.,24.0,0.,24.0
1979-07-03 03:02:11.150 ,3,0,0.,24.0,1.,24.0,0.,24.0,0.,24.0
1979-07-03 03:02:35.150 ,4,1,0.,24.0,0.,24.0,0.,24.0,0.,24.0
1979-07-03 03:02:59.150 ,4,0,0.,24.0,0.,24.0,1.,24.0,0.,24.0
1979-07-03 03:03:23.150 ,5,1,0.,24.0,0.,24.0,1.,24.0,0.,24.0
1979-07-03 03:03:47.150 ,5,0,1.,24.0,0.,24.0,0.,24.0,0.,24.0
1979-07-03 03:04:11.150 ,6,1,0.,24.0,0.,24.0,0.,24.0,0.,24.0
1979-07-03 03:04:35.150 ,6,0,1.,24.0,0.,24.0,0.,24.0,0.,24.0
1979-07-03 03:04:59.150 ,7,1,6.,24.0,0.,24.0,1.,24.0,0.,24.0
1979-07-03 03:05:23.150 ,7,0,28.,24.0,0.,24.0,0.,24.0,0.,24.0
1979-07-03 03:05:47.150 ,7,1,33.,24.0,0.,24.0,0.,24.0,0.,24.0
1979-07-03 03:06:11.150 ,7,0,29.,24.0,0.,24.0,1.,24.0,0.,24.0
1979-07-03 03:06:35.150 ,6,1,23.,24.0,0.,24.0,0.,24.0,0.,24.0
1979-07-03 03:06:59.150 ,6,0,0.,24.0,0.,24.0,1.,24.0,0.,24.0
1979-07-03 03:07:23.150 ,5,1,1.,24.0,0.,24.0,0.,24.0,0.,24.0
1979-07-03 03:07:47.150 ,5,0,0.,24.0,0.,24.0,0.,24.0,0.,24.0
1979-07-03 03:08:11.150 ,4,1,0.,24.0,0.,24.0,0.,24.0,0.,24.0
1979-07-03 03:08:35.150 ,4,0,0.,24.0,0.,24.0,0.,24.0,0.,24.0
1979-07-03 03:08:59.150 ,3,1,0.,24.0,0.,24.0,0.,24.0,0.,24.0
1979-07-03 03:09:23.150 ,3,0,0.,24.0,0.,24.0,0.,24.0,0.,24.0
1979-07-03 03:09:47.150 ,2,1,0.,24.0,0.,24.0,1.,24.0,0.,24.0
1979-07-03 03:10:11.150 ,2,0,0.,24.0,0.,24.0,0.,24.0,0.,24.0
1979-07-03 03:10:35.140 ,1,1,0.,24.0,0.,24.0,0.,24.0,0.,24.0
1979-07-03 03:10:59.140 ,1,0,0.,24.0,0.,24.0,0.,24.0,0.,24.0
1979-07-03 03:11:23.140 ,0,1,0.,24.0,0.,24.0,0.,24.0,0.,24.0
1979-07-03 03:11:47.140 ,0,0,0.,24.0,0.,24.0,0.,24.0,0.,24.0
1979-07-03 03:12:11.140 ,0,1,0.,24.0,0.,24.0,1.,24.0,0.,24.0
1979-07-03 03:12:35.140 ,0,0,0.,24.0,0.,24.0,0.,24.0,0.,24.0
1979-07-03 03:12:59.140 ,1,1,0.,24.0,0.,24.0,0.,24.0,0.,24.0
1979-07-03 03:13:23.140 ,1,0,0.,24.0,0.,24.0,0.,24.0,0.,24.0
1979-07-03 03:13:47.140 ,2,1,0.,24.0,0.,24.0,0.,24.0,0.,24.0
1979-07-03 03:14:11.140 ,2,0,0.,24.0,0.,24.0,0.,24.0,0.,24.0
1979-07-03 03:14:35.140 ,3,1,0.,24.0,0.,24.0,0.,24.0,0.,24.0
1979-07-03 03:14:59.140 ,3,0,1.,24.0,0.,24.0,0.,24.0,0.,24.0
1979-07-03 03:15:23.140 ,4,1,0.,24.0,0.,24.0,0.,24.0,0.,24.0
1979-07-03 03:15:47.140 ,4,0,0.,24.0,0.,24.0,1.,24.0,0.,24.0
1979-07-03 03:16:11.140 ,5,1,0.,24.0,0.,24.0,0.,24.0,0.,24.0
1979-07-03 03:16:35.140 ,5,0,0.,24.0,0.,24.0,1.,24.0,0.,24.0
1979-07-03 03:16:59.140 ,6,1,0.,24.0,0.,24.0,1.,24.0,0.,24.0
1979-07-03 03:17:23.150 ,6,0,0.,24.0,0.,24.0,0.,24.0,0.,24.0
1979-07-03 03:17:47.150 ,7,1,6.,24.0,0.,24.0,0.,24.0,0.,24.0
1979-07-03 03:18:11.150 ,7,0,22.,24.0,0.,24.0,0.,24.0,0.,24.0
1979-07-03 03:18:35.150 ,7,1,19.,24.0,0.,24.0,0.,24.0,0.,24.0
1979-07-03 03:18:59.150 ,7,0,24.,24.0,0.,24.0,0.,24.0,0.,24.0
1979-07-03 03:19:23.150 ,6,1,19.,24.0,0.,24.0,0.,24.0,0.,24.0
1979-07-03 03:19:47.150 ,6,0,1.,24.0,0.,24.0,0.,24.0,0.,24.0
1979-07-03 03:20:11.150 ,5,1,0.,24.0,0.,24.0,0.,24.0,0.,24.0
1979-07-03 03:20:35.150 ,5,0,0.,24.0,0.,24.0,0.,24.0,0.,24.0
1979-07-03 03:20:59.150 ,4,1,0.,24.0,0.,24.0,0.,24.0,0.,24.0
1979-07-03 03:21:23.150 ,4,0,0.,24.0,0.,24.0,2.,24.0,0.,24.0
1979-07-03 03:21:47.150 ,3,1,0.,24.0,0.,24.0,0.,24.0,0.,24.0
1979-07-03 03:22:11.150 ,3,0,0.,24.0,0.,24.0,0.,24.0,0.,24.0
1979-07-03 03:22:35.150 ,2,1,0.,24.0,0.,24.0,1.,24.0,0.,24.0
1979-07-03 03:22:59.150 ,2,0,0.,24.0,0.,24.0,0.,24.0,0.,24.0
1979-07-03 03:23:23.150 ,1,1,0.,24.0,0.,24.0,0.,24.0,0.,24.0
1979-07-03 03:23:47.150 ,1,0,0.,24.0,0.,24.0,1.,24.0,0.,24.0
1979-07-03 03:24:11.150 ,0,1,0.,24.0,0.,24.0,0.,24.0,0.,24.0
1979-07-03 03:24:35.150 ,0,0,0.,24.0,1.,24.0,0.,24.0,0.,24.0
1979-07-03 03:24:59.150 ,0,1,0.,24.0,0.,24.0,0.,24.0,0.,24.0
1979-07-03 03:25:23.150 ,0,0,0.,24.0,0.,24.0,0.,24.0,0.,24.0
1979-07-03 03:25:47.150 ,1,1,0.,24.0,0.,24.0,0.,24.0,0.,24.0
1979-07-03 03:26:11.150 ,1,0,0.,24.0,0.,24.0,0.,24.0,0.,24.0
1979-07-03 03:26:35.150 ,2,1,0.,24.0,0.,24.0,1.,24.0,0.,24.0
1979-07-03 03:26:59.150 ,2,0,0.,24.0,0.,24.0,0.,24.0,0.,24.0
1979-07-03 03:27:23.150 ,3,1,1.,24.0,0.,24.0,0.,24.0,0.,24.0
1979-07-03 03:27:47.150 ,3,0,0.,24.0,0.,24.0,0.,24.0,0.,24.0
1979-07-03 03:28:11.150 ,4,1,0.,24.0,1.,24.0,0.,24.0,0.,24.0
1979-07-03 03:28:35.150 ,4,0,1.,24.0,0.,24.0,0.,24.0,0.,24.0
1979-07-03 03:28:59.150 ,5,1,0.,24.0,0.,24.0,0.,24.0,0.,24.0
1979-07-03 03:29:23.150 ,5,0,0.,24.0,0.,24.0,0.,24.0,0.,24.0
1979-07-03 03:29:47.150 ,6,1,0.,24.0,0.,24.0,0.,24.0,0.,24.0
1979-07-03 03:30:11.150 ,6,0,0.,24.0,0.,24.0,0.,24.0,0.,24.0
1979-07-03 03:30:35.140 ,7,0,8.,24.0,0.,24.0,0.,24.0,0.,24.0
1979-07-03 03:30:59.140 ,7,0,26.,24.0,0.,24.0,1.,24.0,0.,24.0
1979-07-03 03:31:23.140 ,5,1,23.,24.0,1.,24.0,0.,24.0,0.,24.0
1979-07-03 03:31:47.140 ,1,1,0.,24.0,0.,24.0,0.,24.0,0.,24.0
1979-07-03 03:32:11.140 ,2,1,1.,24.0,0.,24.0,0.,24.0,0.,24.0
1979-07-03 03:32:35.140 ,6,1,0.,24.0,0.,24.0,0.,24.0,0.,24.0
1979-07-03 03:32:59.140 ,5,1,25.,24.0,0.,24.0,1.,24.0,0.,24.0
1979-07-03 03:33:23.140 ,1,1,0.,24.0,0.,24.0,0.,24.0,0.,24.0
1979-07-03 03:33:47.140 ,2,1,0.,24.0,0.,24.0,0.,24.0,0.,24.0
1979-07-03 03:34:11.140 ,6,1,1.,24.0,0.,24.0,0.,24.0,0.,24.0
1979-07-03 03:34:35.140 ,5,1,14.,24.0,0.,24.0,0.,24.0,0.,24.0
1979-07-03 03:34:59.140 ,1,1,0.,24.0,1.,24.0,0.,24.0,0.,24.0
1979-07-03 03:35:23.140 ,2,1,0.,24.0,0.,24.0,0.,24.0,0.,24.0
1979-07-03 03:35:47.140 ,6,1,0.,24.0,0.,24.0,0.,24.0,0.,24.0
1979-07-03 03:36:11.140 ,5,1,12.,24.0,0.,24.0,1.,24.0,0.,24.0
1979-07-03 03:36:35.140 ,1,1,0.,24.0,0.,24.0,0.,24.0,0.,24.0
1979-07-03 03:36:59.140 ,2,1,1.,24.0,0.,24.0,0.,24.0,0.,24.0
1979-07-03 03:37:23.140 ,6,1,0.,24.0,0.,24.0,0.,24.0,0.,24.0
1979-07-03 03:37:47.140 ,5,1,9.,24.0,0.,24.0,0.,24.0,0.,24.0
1979-07-03 03:38:11.140 ,1,1,0.,24.0,0.,24.0,0.,24.0,0.,24.0
1979-07-03 03:38:35.140 ,2,1,0.,24.0,0.,24.0,0.,24.0,0.,24.0
1979-07-03 03:38:59.140 ,6,1,0.,24.0,0.,24.0,1.,24.0,0.,24.0
1979-07-03 03:39:23.140 ,5,1,18.,24.0,0.,24.0,0.,24.0,0.,24.0
1979-07-03 03:39:47.140 ,1,1,0.,24.0,0.,24.0,0.,24.0,0.,24.0
1979-07-03 03:40:11.140 ,2,1,0.,24.0,0.,24.0,1.,24.0,0.,24.0
1979-07-03 03:40:35.140 ,6,1,0.,24.0,0.,24.0,0.,24.0,0.,24.0
1979-07-03 03:40:59.140 ,5,1,15.,24.0,0.,24.0,1.,24.0,0.,24.0
1979-07-03 03:41:23.140 ,1,1,0.,24.0,0.,24.0,0.,24.0,0.,24.0
1979-07-03 03:41:47.140 ,0,0,0.,24.0,0.,24.0,0.,24.0,0.,24.0
1979-07-03 03:42:11.140 ,0,0,0.,24.0,0.,24.0,1.,24.0,0.,24.0
1979-07-03 03:42:35.140 ,5,1,18.,24.0,0.,24.0,0.,24.0,0.,24.0
1979-07-03 03:42:59.140 ,5,0,0.,24.0,0.,24.0,0.,24.0,0.,24.0
1979-07-03 03:43:23.140 ,4,1,0.,24.0,0.,24.0,0.,24.0,0.,24.0
1979-07-03 03:43:47.140 ,4,0,0.,24.0,0.,24.0,0.,24.0,0.,24.0
1979-07-03 03:44:11.140 ,3,1,0.,24.0,0.,24.0,0.,24.0,0.,24.0
1979-07-03 03:44:35.140 ,3,0,0.,24.0,0.,24.0,0.,24.0,0.,24.0
1979-07-03 03:44:59.140 ,2,1,0.,24.0,0.,24.0,0.,24.0,0.,24.0
1979-07-03 03:45:23.140 ,2,0,0.,24.0,0.,24.0,0.,24.0,0.,24.0
1979-07-03 03:45:47.140 ,1,1,0.,24.0,0.,24.0,0.,24.0,0.,24.0
1979-07-03 03:46:11.140 ,1,0,0.,24.0,0.,24.0,0.,24.0,0.,24.0
1979-07-03 03:46:35.140 ,0,1,0.,24.0,0.,24.0,0.,24.0,0.,24.0
1979-07-03 03:46:59.140 ,0,0,0.,24.0,0.,24.0,0.,24.0,0.,24.0
1979-07-03 03:47:23.140 ,0,1,0.,24.0,0.,24.0,0.,24.0,0.,24.0
1979-07-03 03:47:47.140 ,0,0,0.,24.0,0.,24.0,0.,24.0,0.,24.0
1979-07-03 03:48:11.140 ,1,1,0.,24.0,0.,24.0,0.,24.0,0.,24.0
1979-07-03 03:48:35.140 ,1,0,2.,24.0,0.,24.0,0.,24.0,0.,24.0
1979-07-03 03:48:59.140 ,2,1,0.,24.0,0.,24.0,0.,24.0,0.,24.0
1979-07-03 03:49:23.140 ,2,0,1.,24.0,0.,24.0,1.,24.0,0.,24.0
1979-07-03 03:49:47.140 ,3,1,0.,24.0,0.,24.0,0.,24.0,0.,24.0
1979-07-03 03:50:11.140 ,3,0,0.,24.0,0.,24.0,1.,24.0,0.,24.0
1979-07-03 03:50:35.140 ,4,1,0.,24.0,0.,24.0,0.,24.0,0.,24.0
1979-07-03 03:50:59.140 ,4,0,0.,24.0,0.,24.0,1.,24.0,0.,24.0
1979-07-03 03:51:23.140 ,5,1,0.,24.0,1.,24.0,1.,24.0,0.,24.0
1979-07-03 03:51:47.140 ,5,0,0.,24.0,0.,24.0,0.,24.0,0.,24.0
1979-07-03 03:52:11.140 ,6,1,0.,24.0,0.,24.0,0.,24.0,0.,24.0
1979-07-03 03:52:35.140 ,6,0,0.,24.0,0.,24.0,0.,24.0,0.,24.0
1979-07-03 03:52:59.140 ,7,1,9.,24.0,0.,24.0,0.,24.0,0.,24.0
1979-07-03 03:53:23.140 ,7,0,27.,24.0,0.,24.0,0.,24.0,0.,24.0
1979-07-03 03:53:47.140 ,7,1,25.,24.0,0.,24.0,0.,24.0,0.,24.0
1979-07-03 03:54:11.140 ,7,0,31.,24.0,0.,24.0,0.,24.0,0.,24.0
1979-07-03 03:54:35.140 ,6,1,17.,24.0,0.,24.0,0.,24.0,0.,24.0
1979-07-03 03:54:59.140 ,6,0,0.,24.0,0.,24.0,0.,24.0,0.,24.0
1979-07-03 03:55:23.140 ,5,1,0.,24.0,0.,24.0,1.,24.0,0.,24.0
1979-07-03 03:55:47.140 ,5,0,0.,24.0,0.,24.0,0.,24.0,0.,24.0
1979-07-03 03:56:11.140 ,4,1,0.,24.0,0.,24.0,2.,24.0,0.,24.0
1979-07-03 03:56:35.140 ,4,0,1.,24.0,0.,24.0,0.,24.0,0.,24.0
1979-07-03 03:56:59.140 ,3,1,0.,24.0,1.,24.0,0.,24.0,0.,24.0
1979-07-03 03:57:23.140 ,3,0,0.,24.0,0.,24.0,0.,24.0,0.,24.0
1979-07-03 03:57:47.140 ,2,1,1.,24.0,0.,24.0,0.,24.0,0.,24.0
1979-07-03 03:58:11.140 ,2,0,0.,24.0,0.,24.0,0.,24.0,0.,24.0
1979-07-03 03:58:35.140 ,1,1,0.,24.0,0.,24.0,0.,24.0,0.,24.0
1979-07-03 03:58:59.140 ,1,0,0.,24.0,0.,24.0,0.,24.0,0.,24.0
1979-07-03 03:59:23.140 ,0,1,0.,24.0,0.,24.0,0.,24.0,0.,24.0
1979-07-03 03:59:47.140 ,0,0,0.,24.0,0.,24.0,0.,24.0,0.,24.0
1979-07-03 04:00:11.140 ,0,1,0.,24.0,0.,24.0,0.,24.0,0.,24.0
1979-07-03 04:00:35.140 ,0,0,0.,24.0,1.,24.0,0.,24.0,0.,24.0
1979-07-03 04:00:59.140 ,1,1,0.,24.0,0.,24.0,0.,24.0,0.,24.0
1979-07-03 04:01:23.140 ,1,0,0.,24.0,0.,24.0,0.,24.0,0.,24.0
1979-07-03 04:01:47.140 ,2,1,0.,24.0,0.,24.0,0.,24.0,0.,24.0
1979-07-03 04:02:11.140 ,2,0,0.,24.0,0.,24.0,0.,24.0,0.,24.0
1979-07-03 04:02:35.140 ,3,1,0.,24.0,0.,24.0,1.,24.0,0.,24.0
1979-07-03 04:02:59.140 ,3,0,0.,24.0,0.,24.0,0.,24.0,0.,24.0
1979-07-03 04:03:23.140 ,4,1,0.,24.0,0.,24.0,0.,24.0,0.,24.0
1979-07-03 04:03:47.140 ,4,0,0.,24.0,0.,24.0,1.,24.0,0.,24.0
1979-07-03 04:04:11.140 ,5,1,0.,24.0,0.,24.0,1.,24.0,0.,24.0
1979-07-03 04:04:35.140 ,5,0,1.,24.0,0.,24.0,1.,24.0,0.,24.0
1979-07-03 04:04:59.140 ,6,1,0.,24.0,0.,24.0,0.,24.0,0.,24.0
1979-07-03 04:05:23.140 ,6,0,0.,24.0,0.,24.0,0.,24.0,0.,24.0
1979-07-03 04:05:47.140 ,7,1,5.,24.0,0.,24.0,0.,24.0,0.,24.0
1979-07-03 04:06:11.140 ,7,0,33.,24.0,0.,24.0,0.,24.0,0.,24.0
1979-07-03 04:06:35.140 ,7,1,32.,24.0,0.,24.0,0.,24.0,0.,24.0
1979-07-03 04:06:59.140 ,7,0,30.,24.0,0.,24.0,0.,24.0,0.,24.0
1979-07-03 04:07:23.140 ,6,1,28.,24.0,1.,24.0,0.,24.0,0.,24.0
1979-07-03 04:07:47.140 ,6,0,1.,24.0,0.,24.0,0.,24.0,0.,24.0
1979-07-03 04:08:11.140 ,5,1,1.,24.0,0.,24.0,0.,24.0,0.,24.0
1979-07-03 04:08:35.140 ,5,0,0.,24.0,1.,24.0,1.,24.0,0.,24.0
1979-07-03 04:08:59.140 ,4,1,0.,24.0,0.,24.0,0.,24.0,0.,24.0
1979-07-03 04:09:23.140 ,4,0,0.,24.0,1.,24.0,0.,24.0,0.,24.0
1979-07-03 04:09:47.140 ,3,1,1.,24.0,0.,24.0,0.,24.0,0.,24.0
1979-07-03 04:10:11.140 ,3,0,0.,24.0,0.,24.0,0.,24.0,0.,24.0
1979-07-03 04:10:35.140 ,2,1,0.,24.0,1.,24.0,0.,24.0,0.,24.0
1979-07-03 04:10:59.140 ,2,0,0.,24.0,0.,24.0,0.,24.0,0.,24.0
1979-07-03 04:11:23.140 ,1,1,0.,24.0,0.,24.0,0.,24.0,0.,24.0
1979-07-03 04:11:47.140 ,1,0,0.,24.0,0.,24.0,0.,24.0,0.,24.0
1979-07-03 04:12:11.140 ,0,1,0.,24.0,0.,24.0,0.,24.0,0.,24.0
1979-07-03 04:12:35.140 ,0,0,0.,24.0,0.,24.0,1.,24.0,0.,24.0
1979-07-03 04:12:59.140 ,0,1,0.,24.0,1.,24.0,0.,24.0,0.,24.0
1979-07-03 04:13:23.140 ,0,0,1.,24.0,0.,24.0,1.,24.0,0.,24.0
1979-07-03 04:13:47.140 ,1,1,0.,24.0,0.,24.0,0.,24.0,0.,24.0
1979-07-03 04:14:11.140 ,1,0,0.,24.0,0.,24.0,0.,24.0,0.,24.0
1979-07-03 04:14:35.140 ,2,1,0.,24.0,0.,24.0,0.,24.0,0.,24.0
1979-07-03 04:14:59.140 ,2,0,0.,24.0,0.,24.0,0.,24.0,0.,24.0
1979-07-03 04:15:23.140 ,3,1,0.,24.0,0.,24.0,0.,24.0,0.,24.0
1979-07-03 04:15:47.140 ,3,0,0.,24.0,0.,24.0,0.,24.0,0.,24.0
1979-07-03 04:16:11.140 ,4,1,0.,24.0,0.,24.0,1.,24.0,0.,24.0
1979-07-03 04:16:35.140 ,4,0,0.,24.0,0.,24.0,0.,24.0,0.,24.0
1979-07-03 04:16:59.140 ,5,1,0.,24.0,0.,24.0,0.,24.0,0.,24.0
1979-07-03 04:17:23.140 ,5,0,0.,24.0,0.,24.0,0.,24.0,0.,24.0
1979-07-03 04:17:47.140 ,6,1,0.,24.0,0.,24.0,0.,24.0,0.,24.0
1979-07-03 04:18:11.140 ,6,0,0.,24.0,0.,24.0,0.,24.0,0.,24.0
1979-07-03 04:18:35.140 ,7,0,5.,24.0,0.,24.0,1.,24.0,0.,24.0
1979-07-03 04:18:59.140 ,7,0,25.,24.0,0.,24.0,0.,24.0,0.,24.0
1979-07-03 04:19:23.140 ,5,1,19.,24.0,0.,24.0,0.,24.0,0.,24.0
1979-07-03 04:19:47.140 ,1,1,1.,24.0,0.,24.0,1.,24.0,0.,24.0
1979-07-03 04:20:11.140 ,2,1,0.,24.0,0.,24.0,0.,24.0,0.,24.0
1979-07-03 04:20:35.140 ,6,1,0.,24.0,0.,24.0,0.,24.0,0.,24.0
1979-07-03 04:20:59.140 ,5,1,10.,24.0,0.,24.0,0.,24.0,0.,24.0
1979-07-03 04:21:23.140 ,1,1,0.,24.0,0.,24.0,0.,24.0,0.,24.0
1979-07-03 04:21:47.140 ,2,1,0.,24.0,0.,24.0,1.,24.0,0.,24.0
1979-07-03 04:22:11.140 ,6,1,0.,24.0,0.,24.0,0.,24.0,0.,24.0
1979-07-03 04:22:35.140 ,5,1,15.,24.0,0.,24.0,1.,24.0,0.,24.0
1979-07-03 04:22:59.140 ,1,1,0.,24.0,0.,24.0,0.,24.0,0.,24.0
1979-07-03 04:23:23.140 ,2,1,0.,24.0,0.,24.0,0.,24.0,0.,24.0
1979-07-03 04:23:47.140 ,6,1,0.,24.0,0.,24.0,0.,24.0,0.,24.0
1979-07-03 04:24:11.140 ,5,1,10.,24.0,0.,24.0,0.,24.0,0.,24.0
1979-07-03 04:24:35.140 ,1,1,0.,24.0,0.,24.0,0.,24.0,0.,24.0
1979-07-03 04:24:59.140 ,2,1,0.,24.0,0.,24.0,0.,24.0,0.,24.0
1979-07-03 04:25:23.140 ,6,1,0.,24.0,0.,24.0,0.,24.0,0.,24.0
1979-07-03 04:25:47.140 ,5,1,16.,24.0,0.,24.0,0.,24.0,0.,24.0
1979-07-03 04:26:11.140 ,1,1,0.,24.0,0.,24.0,0.,24.0,0.,24.0
1979-07-03 04:26:35.140 ,2,1,0.,24.0,1.,24.0,0.,24.0,0.,24.0
1979-07-03 04:26:59.140 ,6,1,1.,24.0,1.,24.0,0.,24.0,0.,24.0
1979-07-03 04:27:23.140 ,5,1,9.,24.0,0.,24.0,0.,24.0,0.,24.0
1979-07-03 04:27:47.140 ,1,1,0.,24.0,1.,24.0,1.,24.0,0.,24.0
1979-07-03 04:28:11.140 ,2,1,0.,24.0,0.,24.0,0.,24.0,0.,24.0
1979-07-03 04:28:35.140 ,6,1,0.,24.0,0.,24.0,0.,24.0,0.,24.0
1979-07-03 04:28:59.140 ,5,1,15.,24.0,0.,24.0,0.,24.0,0.,24.0
1979-07-03 04:29:23.140 ,1,1,0.,24.0,0.,24.0,0.,24.0,0.,24.0
1979-07-03 04:29:47.140 ,0,0,1.,24.0,0.,24.0,0.,24.0,0.,24.0
1979-07-03 04:30:11.140 ,0,0,1.,24.0,0.,24.0,0.,24.0,0.,24.0
1979-07-03 04:30:35.140 ,5,1,15.,24.0,0.,24.0,0.,24.0,0.,24.0
1979-07-03 04:30:59.140 ,5,0,0.,24.0,0.,24.0,0.,24.0,0.,24.0
1979-07-03 04:31:23.140 ,4,1,1.,24.0,0.,24.0,0.,24.0,0.,24.0
1979-07-03 04:31:47.140 ,4,0,0.,24.0,0.,24.0,0.,24.0,0.,24.0
1979-07-03 04:32:11.140 ,3,1,0.,24.0,0.,24.0,0.,24.0,0.,24.0
1979-07-03 04:32:35.140 ,3,0,0.,24.0,0.,24.0,0.,24.0,0.,24.0
1979-07-03 04:32:59.140 ,2,1,0.,24.0,0.,24.0,0.,24.0,0.,24.0
1979-07-03 04:33:23.140 ,2,0,0.,24.0,0.,24.0,1.,24.0,0.,24.0
1979-07-03 04:33:47.140 ,1,1,0.,24.0,0.,24.0,0.,24.0,0.,24.0
1979-07-03 04:34:11.140 ,1,0,0.,24.0,0.,24.0,0.,24.0,0.,24.0
1979-07-03 04:34:35.140 ,0,1,0.,24.0,0.,24.0,0.,24.0,0.,24.0
1979-07-03 04:34:59.140 ,0,0,0.,24.0,0.,24.0,1.,24.0,0.,24.0
1979-07-03 04:35:23.140 ,0,1,0.,24.0,0.,24.0,0.,24.0,0.,24.0
1979-07-03 04:35:47.140 ,0,0,0.,24.0,0.,24.0,0.,24.0,0.,24.0
1979-07-03 04:36:11.140 ,1,1,0.,24.0,0.,24.0,0.,24.0,0.,24.0
1979-07-03 04:36:35.140 ,1,0,1.,24.0,0.,24.0,0.,24.0,0.,24.0
1979-07-03 04:36:59.140 ,2,1,0.,24.0,0.,24.0,0.,24.0,0.,24.0
1979-07-03 04:37:23.140 ,2,0,0.,24.0,0.,24.0,1.,24.0,0.,24.0
1979-07-03 04:37:47.140 ,3,1,0.,24.0,0.,24.0,1.,24.0,0.,24.0
1979-07-03 04:38:11.140 ,3,0,0.,24.0,0.,24.0,1.,24.0,0.,24.0
1979-07-03 04:38:35.140 ,4,1,0.,24.0,0.,24.0,0.,24.0,0.,24.0
1979-07-03 04:38:59.140 ,4,0,0.,24.0,0.,24.0,0.,24.0,0.,24.0
1979-07-03 04:39:23.140 ,5,1,0.,24.0,0.,24.0,0.,24.0,0.,24.0
1979-07-03 04:39:47.140 ,5,0,2.,24.0,0.,24.0,0.,24.0,0.,24.0
1979-07-03 04:40:11.140 ,6,1,0.,24.0,0.,24.0,0.,24.0,0.,24.0
1979-07-03 04:40:35.140 ,6,0,0.,24.0,0.,24.0,0.,24.0,0.,24.0
1979-07-03 04:40:59.140 ,7,1,6.,24.0,0.,24.0,1.,24.0,0.,24.0
1979-07-03 04:41:23.140 ,7,0,31.,24.0,0.,24.0,0.,24.0,0.,24.0
1979-07-03 04:41:47.140 ,7,1,24.,24.0,0.,24.0,1.,24.0,0.,24.0
1979-07-03 04:42:11.140 ,7,0,20.,24.0,0.,24.0,1.,24.0,0.,24.0
1979-07-03 04:42:35.140 ,6,1,30.,24.0,0.,24.0,0.,24.0,0.,24.0
1979-07-03 04:42:59.140 ,6,0,0.,24.0,0.,24.0,0.,24.0,0.,24.0
1979-07-03 04:43:23.140 ,5,1,0.,24.0,0.,24.0,0.,24.0,0.,24.0
1979-07-03 04:43:47.140 ,5,0,0.,24.0,0.,24.0,0.,24.0,0.,24.0
1979-07-03 04:44:11.140 ,4,1,1.,24.0,0.,24.0,0.,24.0,0.,24.0
1979-07-03 04:44:35.140 ,4,0,0.,24.0,0.,24.0,0.,24.0,0.,24.0
1979-07-03 04:44:59.140 ,3,1,0.,24.0,0.,24.0,1.,24.0,0.,24.0
1979-07-03 04:45:23.140 ,3,0,0.,24.0,0.,24.0,0.,24.0,0.,24.0
1979-07-03 04:45:47.140 ,2,1,0.,24.0,0.,24.0,1.,24.0,0.,24.0
1979-07-03 04:46:11.140 ,2,0,0.,24.0,0.,24.0,0.,24.0,0.,24.0
1979-07-03 04:46:35.140 ,1,1,0.,24.0,0.,24.0,0.,24.0,0.,24.0
1979-07-03 04:46:59.140 ,1,0,1.,24.0,0.,24.0,0.,24.0,0.,24.0
1979-07-03 04:47:23.140 ,0,1,0.,24.0,0.,24.0,0.,24.0,0.,24.0
1979-07-03 04:47:47.140 ,0,0,0.,24.0,0.,24.0,0.,24.0,0.,24.0
1979-07-03 04:49:20.740 ,0,0,,0,,0,,0,,0
1979-07-03 04:49:23.140 ,0,0,0.,24.0,0.,24.0,0.,24.0,0.,24.0
1979-07-03 04:49:47.140 ,2,1,0.,24.0,0.,24.0,0.,24.0,0.,24.0
1979-07-03 04:50:11.140 ,2,0,0.,24.0,0.,24.0,0.,24.0,0.,24.0
1979-07-03 04:50:35.140 ,3,1,0.,24.0,0.,24.0,1.,24.0,0.,24.0
1979-07-03 04:50:59.140 ,3,0,0.,24.0,0.,24.0,0.,24.0,0.,24.0
1979-07-03 04:51:23.140 ,4,1,0.,24.0,0.,24.0,0.,24.0,0.,24.0
1979-07-03 04:51:47.140 ,4,0,0.,24.0,0.,24.0,0.,24.0,0.,24.0
1979-07-03 04:52:11.140 ,5,1,0.,24.0,0.,24.0,0.,24.0,0.,24.0
1979-07-03 04:52:35.140 ,5,0,0.,24.0,0.,24.0,0.,24.0,0.,24.0
1979-07-03 04:52:59.140 ,6,1,0.,24.0,0.,24.0,0.,24.0,0.,24.0
1979-07-03 04:53:23.140 ,6,0,1.,24.0,0.,24.0,1.,24.0,0.,24.0
1979-07-03 04:53:47.140 ,7,1,5.,24.0,0.,24.0,0.,24.0,0.,24.0
1979-07-03 04:54:11.140 ,7,0,32.,24.0,0.,24.0,0.,24.0,0.,24.0
1979-07-03 04:54:35.140 ,7,1,28.,24.0,0.,24.0,1.,24.0,0.,24.0
1979-07-03 04:54:59.140 ,7,0,25.,24.0,0.,24.0,0.,24.0,0.,24.0
1979-07-03 04:55:23.140 ,6,1,23.,24.0,0.,24.0,0.,24.0,0.,24.0
1979-07-03 04:55:47.140 ,6,0,1.,24.0,0.,24.0,0.,24.0,0.,24.0
1979-07-03 04:56:11.140 ,5,1,2.,24.0,0.,24.0,0.,24.0,0.,24.0
1979-07-03 04:56:35.140 ,5,0,1.,24.0,0.,24.0,1.,24.0,0.,24.0
1979-07-03 04:56:59.140 ,4,1,1.,24.0,1.,24.0,0.,24.0,0.,24.0
1979-07-03 04:57:23.140 ,4,0,0.,24.0,0.,24.0,0.,24.0,0.,24.0
1979-07-03 04:57:47.140 ,3,1,1.,24.0,0.,24.0,0.,24.0,0.,24.0
1979-07-03 04:58:11.140 ,3,0,1.,24.0,0.,24.0,0.,24.0,0.,24.0
1979-07-03 04:58:35.140 ,2,1,0.,24.0,0.,24.0,0.,24.0,0.,24.0
1979-07-03 04:58:59.140 ,2,0,0.,24.0,0.,24.0,0.,24.0,0.,24.0
1979-07-03 04:59:23.140 ,1,1,0.,24.0,0.,24.0,0.,24.0,0.,24.0
1979-07-03 04:59:47.140 ,1,0,0.,24.0,0.,24.0,0.,24.0,0.,24.0
1979-07-03 05:00:11.140 ,0,1,0.,24.0,0.,24.0,0.,24.0,0.,24.0
1979-07-03 05:00:35.140 ,0,0,0.,24.0,0.,24.0,0.,24.0,0.,24.0
1979-07-03 05:00:59.140 ,0,1,0.,24.0,0.,24.0,0.,24.0,0.,24.0
1979-07-03 05:01:23.140 ,0,0,0.,24.0,0.,24.0,0.,24.0,0.,24.0
1979-07-03 05:01:47.140 ,1,1,0.,24.0,0.,24.0,1.,24.0,0.,24.0
1979-07-03 05:02:11.140 ,1,0,0.,24.0,0.,24.0,0.,24.0,0.,24.0
1979-07-03 05:02:35.140 ,2,1,0.,24.0,0.,24.0,0.,24.0,0.,24.0
1979-07-03 05:02:59.140 ,2,0,1.,24.0,0.,24.0,0.,24.0,0.,24.0
1979-07-03 05:03:23.140 ,3,1,0.,24.0,0.,24.0,0.,24.0,0.,24.0
1979-07-03 05:03:47.140 ,3,0,0.,24.0,0.,24.0,1.,24.0,0.,24.0
1979-07-03 05:04:11.140 ,4,1,0.,24.0,0.,24.0,0.,24.0,0.,24.0
1979-07-03 05:04:35.140 ,4,0,0.,24.0,0.,24.0,0.,24.0,0.,24.0
1979-07-03 05:04:59.140 ,5,1,0.,24.0,0.,24.0,1.,24.0,0.,24.0
1979-07-03 05:05:23.140 ,5,0,0.,24.0,1.,24.0,0.,24.0,0.,24.0
1979-07-03 05:05:47.140 ,6,1,0.,24.0,0.,24.0,0.,24.0,0.,24.0
1979-07-03 05:06:11.140 ,6,0,0.,24.0,0.,24.0,0.,24.0,0.,24.0
1979-07-03 05:06:35.140 ,7,0,10.,24.0,0.,24.0,0.,24.0,0.,24.0
1979-07-03 05:06:59.140 ,7,0,28.,24.0,0.,24.0,0.,24.0,0.,24.0
1979-07-03 05:07:23.140 ,5,1,17.,24.0,0.,24.0,0.,24.0,0.,24.0
1979-07-03 05:07:47.140 ,1,1,0.,24.0,0.,24.0,0.,24.0,0.,24.0
1979-07-03 05:08:11.140 ,2,1,0.,24.0,0.,24.0,0.,24.0,0.,24.0
1979-07-03 05:08:35.140 ,6,1,0.,24.0,0.,24.0,0.,24.0,0.,24.0
1979-07-03 05:08:59.140 ,5,1,12.,24.0,1.,24.0,0.,24.0,0.,24.0
1979-07-03 05:09:23.140 ,1,1,1.,24.0,0.,24.0,0.,24.0,0.,24.0
1979-07-03 05:09:47.140 ,2,1,0.,24.0,0.,24.0,1.,24.0,0.,24.0
1979-07-03 05:10:11.140 ,6,1,0.,24.0,0.,24.0,1.,24.0,0.,24.0
1979-07-03 05:10:35.140 ,5,1,5.,24.0,0.,24.0,0.,24.0,0.,24.0
1979-07-03 05:10:59.140 ,1,1,0.,24.0,0.,24.0,0.,24.0,0.,24.0
1979-07-03 05:11:23.140 ,2,1,0.,24.0,0.,24.0,1.,24.0,0.,24.0
1979-07-03 05:11:47.140 ,6,1,1.,24.0,0.,24.0,0.,24.0,0.,24.0
1979-07-03 05:12:11.140 ,5,1,11.,24.0,0.,24.0,0.,24.0,0.,24.0
1979-07-03 05:12:35.140 ,1,1,0.,24.0,0.,24.0,0.,24.0,0.,24.0
1979-07-03 05:12:59.140 ,2,1,0.,24.0,0.,24.0,0.,24.0,0.,24.0
1979-07-03 05:13:23.140 ,6,1,0.,24.0,0.,24.0,0.,24.0,0.,24.0
1979-07-03 05:13:47.140 ,5,1,20.,24.0,0.,24.0,0.,24.0,0.,24.0
1979-07-03 05:14:11.140 ,1,1,0.,24.0,1.,24.0,0.,24.0,0.,24.0
1979-07-03 05:14:35.140 ,2,1,0.,24.0,0.,24.0,0.,24.0,0.,24.0
1979-07-03 05:14:59.140 ,6,1,1.,24.0,0.,24.0,1.,24.0,0.,24.0
1979-07-03 05:15:23.140 ,5,1,11.,24.0,1.,24.0,1.,24.0,0.,24.0
1979-07-03 05:15:47.140 ,1,1,0.,24.0,0.,24.0,0.,24.0,0.,24.0
1979-07-03 05:16:11.140 ,2,1,0.,24.0,0.,24.0,0.,24.0,0.,24.0
1979-07-03 05:16:35.140 ,6,1,0.,24.0,0.,24.0,1.,24.0,0.,24.0
1979-07-03 05:16:59.140 ,5,1,16.,24.0,0.,24.0,0.,24.0,0.,24.0
1979-07-03 05:17:23.140 ,1,1,0.,24.0,0.,24.0,0.,24.0,0.,24.0
1979-07-03 05:17:47.140 ,0,0,1.,24.0,0.,24.0,0.,24.0,0.,24.0
1979-07-03 05:18:11.140 ,0,0,0.,24.0,0.,24.0,0.,24.0,0.,24.0
1979-07-03 05:18:35.140 ,5,1,13.,24.0,1.,24.0,0.,24.0,0.,24.0
1979-07-03 05:18:59.140 ,5,0,0.,24.0,0.,24.0,1.,24.0,0.,24.0
1979-07-03 05:19:23.140 ,4,1,0.,24.0,0.,24.0,0.,24.0,0.,24.0
1979-07-03 05:19:47.140 ,4,0,0.,24.0,0.,24.0,0.,24.0,0.,24.0
1979-07-03 05:20:11.140 ,3,1,0.,24.0,0.,24.0,0.,24.0,0.,24.0
1979-07-03 05:20:35.140 ,3,0,0.,24.0,0.,24.0,0.,24.0,0.,24.0
1979-07-03 05:20:59.140 ,2,1,2.,24.0,0.,24.0,0.,24.0,0.,24.0
1979-07-03 05:21:23.140 ,2,0,0.,24.0,0.,24.0,0.,24.0,0.,24.0
1979-07-03 05:21:47.140 ,1,1,0.,24.0,1.,24.0,0.,24.0,0.,24.0
1979-07-03 05:22:11.140 ,1,0,0.,24.0,0.,24.0,0.,24.0,0.,24.0
1979-07-03 05:22:35.140 ,0,1,0.,24.0,0.,24.0,0.,24.0,0.,24.0
1979-07-03 05:22:59.140 ,0,0,0.,24.0,0.,24.0,1.,24.0,0.,24.0
1979-07-03 05:23:23.140 ,0,1,0.,24.0,0.,24.0,1.,24.0,0.,24.0
1979-07-03 05:23:47.140 ,0,0,0.,24.0,0.,24.0,0.,24.0,0.,24.0
1979-07-03 05:24:11.140 ,1,1,0.,24.0,0.,24.0,0.,24.0,0.,24.0
1979-07-03 05:24:35.140 ,1,0,0.,24.0,0.,24.0,0.,24.0,0.,24.0
1979-07-03 05:24:59.140 ,2,1,0.,24.0,0.,24.0,0.,24.0,0.,24.0
1979-07-03 05:25:23.140 ,2,0,0.,24.0,0.,24.0,1.,24.0,0.,24.0
1979-07-03 05:25:47.140 ,3,1,0.,24.0,0.,24.0,0.,24.0,0.,24.0
1979-07-03 05:26:11.140 ,3,0,2.,24.0,1.,24.0,0.,24.0,0.,24.0
1979-07-03 05:26:35.140 ,4,1,0.,24.0,0.,24.0,0.,24.0,0.,24.0
1979-07-03 05:26:59.140 ,4,0,0.,24.0,0.,24.0,0.,24.0,0.,24.0
1979-07-03 05:27:23.140 ,5,1,0.,24.0,0.,24.0,0.,24.0,0.,24.0
1979-07-03 05:27:47.140 ,5,0,0.,24.0,0.,24.0,0.,24.0,0.,24.0
1979-07-03 05:28:11.140 ,6,1,0.,24.0,0.,24.0,0.,24.0,0.,24.0
1979-07-03 05:28:35.140 ,6,0,0.,24.0,0.,24.0,1.,24.0,0.,24.0
1979-07-03 05:28:59.140 ,7,1,4.,24.0,0.,24.0,0.,24.0,0.,24.0
1979-07-03 05:29:23.140 ,7,0,26.,24.0,0.,24.0,0.,24.0,0.,24.0
1979-07-03 05:29:47.140 ,7,1,29.,24.0,0.,24.0,1.,24.0,0.,24.0
1979-07-03 05:30:11.140 ,7,0,26.,24.0,0.,24.0,0.,24.0,0.,24.0
1979-07-03 05:30:35.140 ,6,1,22.,24.0,0.,24.0,0.,24.0,0.,24.0
1979-07-03 05:30:59.140 ,6,0,0.,24.0,0.,24.0,0.,24.0,0.,24.0
1979-07-03 05:31:23.140 ,5,1,1.,24.0,0.,24.0,0.,24.0,0.,24.0
1979-07-03 05:31:47.140 ,5,0,1.,24.0,0.,24.0,0.,24.0,0.,24.0
1979-07-03 05:32:11.140 ,4,1,0.,24.0,0.,24.0,0.,24.0,0.,24.0
1979-07-03 05:32:35.140 ,4,0,0.,24.0,0.,24.0,0.,24.0,0.,24.0
1979-07-03 05:32:59.140 ,3,1,0.,24.0,0.,24.0,0.,24.0,0.,24.0
1979-07-03 05:33:23.140 ,3,0,0.,24.0,0.,24.0,0.,24.0,0.,24.0
1979-07-03 05:33:47.140 ,2,1,0.,24.0,0.,24.0,0.,24.0,0.,24.0
1979-07-03 05:34:11.140 ,2,0,0.,24.0,0.,24.0,0.,24.0,0.,24.0
1979-07-03 05:34:35.140 ,1,1,0.,24.0,0.,24.0,0.,24.0,0.,24.0
1979-07-03 05:34:59.140 ,0,0,1.,24.0,0.,24.0,0.,24.0,0.,24.0